Regional Weather Roundup
Issued by NWS Upton, NY

Current Version | Previous Version | Text Only | Print | Product List | Glossary On
Versions: 1 2 3 4 5 6 7 8 9 10 11 12 13 14 15 16 17 18 19 20 21 22 23 24 25 26 27 28 29 30 31 32 33 34 35 36 37 38 39 40 41 42 43 44 45 46 47 48 49 50
000
ASUS41 KOKX 271805
RWROKX

REGIONAL WEATHER ROUNDUP
NATIONAL WEATHER SERVICE NEW YORK NY
100 PM EST THU NOV 27 2014

NOTE: "FAIR" INDICATES FEW OR NO CLOUDS BELOW 12,000 FEET WITH NO
SIGNIFICANT WEATHER AND/OR OBSTRUCTIONS TO VISIBILITY.

NYZ071-072-176-178-NJZ106-104-271900-
NEW YORK CITY METRO AREA


CITY           SKY/WX    TMP DP  RH WIND       PRES   REMARKS
CENTRAL PARK   CLOUDY    36  31  82 NW7       30.00F WCI  30
LAGUARDIA APRT CLOUDY    37  32  82 NW8       29.98F WCI  31
KENNEDY INTL   LGT RAIN  38  33  82 N8        29.99F WCI  32
NEWARK/LIBERTY CLOUDY    38  33  82 NW7       29.99F WCI  33
BRNX BOT. GARD   N/A     36  32  87 NW5       30.00S WCI  32
TETERBORO      LGT RAIN  36  32  85 NW5       29.98F WCI  32
$$

NYZ177-179-078>081-271900-
LONG ISLAND NEW YORK

CITY           SKY/WX    TMP DP  RH WIND       PRES   REMARKS
FARMINGDALE    CLOUDY    39  30  70 NW7       29.98S WCI  34
ISLIP          CLOUDY    38  31  76 NW8       29.95F WCI  32
SHIRLEY        CLOUDY    38  33  82 VRB7      29.97F WCI  33
WESTHAMPTON    CLOUDY    38  32  79 NW7       29.97F WCI  33
MONTAUK POINT    N/A     40  32  73 W5        29.96F
$$

NYZ052-065-067-271900-
HUDSON VALLEY

CITY           SKY/WX    TMP DP  RH WIND       PRES   REMARKS
WHITE PLAINS   LGT SNOW  35  30  82 NW8       29.96S WCI  29
NEWBURGH       LGT SNOW  34  32  93 CALM      29.98F FOG
MONTGOMERY     LGT SNOW  33  30  88 CALM      29.97F FOG
POUGHKEEPSIE   LGT SNOW  33  29  85 N6        29.99S FOG     WCI  28
ALBANY         FLURRIES  32  25  75 CALM      30.01F
$$

NJZ001-105-106-008-010-013-015-019>022-104-271900-
NEW JERSEY

CITY           SKY/WX    TMP DP  RH WIND       PRES   REMARKS
NEWARK/LIBERTY CLOUDY    38  33  82 NW7       29.99F WCI  33
TETERBORO      LGT RAIN  36  32  85 NW5       29.98F WCI  32
CALDWELL       FLURRIES  35  30  82 NW3       29.99S
MORRISTOWN     CLOUDY    37  30  75 N7        29.99  WCI  32
SOMERVILLE     CLOUDY    37  31  78 NW6       29.98F WCI  32
SUSSEX         FLURRIES  34  28  79 NW3       29.98S
ANDOVER          N/A     33  29  85 N3        29.98F
TRENTON        CLOUDY    36  29  75 NW9       29.99F WCI  29
MILLVILLE      PTSUNNY   43  32  65 W10       30.00F
ATLANTIC CITY  PTSUNNY   43  33  68 NW8       29.99F
WRIGHTSTOWN    CLOUDY    38  31  77 NW10      29.97F WCI  31
TOMS RIVER     CLOUDY    39  34  81 W6        29.99F WCI  35
BELMAR         CLOUDY    37  28  70 NW9       29.98F WCI  31
$$

PAZ047>061-062-071-271900-
EASTERN PENNSYLVANIA

CITY           SKY/WX    TMP DP  RH WIND       PRES   REMARKS
PHILADELPHIA   PTSUNNY   40  29  64 NW13      30.02F WCI  32
ALLENTOWN      PTSUNNY   37  26  64 NW10      30.00F WCI  30
SCRANTON       CLOUDY    33  26  75 W14       29.98F WCI  23
$$

CTZ002-004>006-009-010-012-RIZ004-006-007-MAZ004-011-015-271900-
SOUTHERN NEW ENGLAND
 IN CT

CITY           SKY/WX    TMP DP  RH WIND       PRES   REMARKS
BRADLEY INTL   CLOUDY    37  28  70 N7        29.95F WCI  32
HARTFORD       CLOUDY    36  27  69 VRB5      29.97S WCI  32
DANBURY        CLOUDY    34  26  72 N6        29.97F WCI  29
WTRBRY/OXFORD  LGT SNOW  32  25  74 NW5       29.96S WCI  27
BRIDGEPORT     CLOUDY    38  30  73 N6        29.97S WCI  33
MERIDEN        CLOUDY    36  28  73 N9        29.96F WCI  29
NEW HAVEN      CLOUDY    41  29  62 N8        29.96S
CHESTER        MOCLDY    36  30  80 N7        29.95S WCI  30
GROTON         CLOUDY    39  30  70 NW5       29.95S
WILLIMANTIC    CLOUDY    37  29  72 N9        29.95S WCI  30

 IN RI

CITY           SKY/WX    TMP DP  RH WIND       PRES   REMARKS
PROVIDENCE     CLOUDY    40  29  64 W3        29.94F
BLOCK ISLAND   CLOUDY    39  30  70 CALM      29.94F
WESTERLY       CLOUDY    41  32  70 VRB3      29.95S

 IN MA

CITY           SKY/WX    TMP DP  RH WIND       PRES   REMARKS
BOSTON         CLOUDY    38  30  73 NW7       29.94S WCI  33
WORCESTER      CLOUDY    31  27  85 NW13      29.91S WCI  21
WESTFIELD      CLOUDY    35  28  75 NW7       29.95F WCI  29
PROVINCETOWN   CLOUDY    39  32  75 NW10      29.93S WCI  32
NANTUCKET      CLOUDY    41  33  73 NW9       29.93R
$$

ANZ330-335-338-340-345-350-353-355-271900-
COASTAL MARINE OBSERVATIONS


STATION/POSITION TIME  SKY/WX   TEMP    WIND        PRES    VSBY  WAVE
                                AIR SEA DIR/SP/G                  HT/PER
                 (UTC)          (F)     (DEG/KT/KT) (MB)    (MI)  (FT/S)
NY HARB ENTRANCE 1800            39 54  290/ 10/ 14 1015.4          4/10
4S FIRE IS       1800               52                N/A           5/ 9
20S FIRE ISLAND  1800            39 54  320/ 10/ 14 1014.5          5/10
23SW MTP         1800                                 N/A           6/10
HUDSON CANYON    1800            45 58  270/ 16/ 19 1013.8          7/ 8
EXECUTION ROCKS  1800            37 48  310/  8/ 12   N/A
WESTERN LI SOUND 1700            37     320/  8/ 14   N/A           0
CENTRAL LI SOUND 1700            37 50  330/  6/ 10   N/A           1
EASTERN LI SOUND 1700            41 52  360/  4/  8   N/A
ROBBINS REEF     1800            36     350/  7/  9 1014.2
$$


>>>>>>>>>>>>>>>>>>>>>>>>>>>> KEY <<<<<<<<<<<<<<<<<<<<<<<<<<<
>                                                          <
>     SKY/WX - SKY CONDITION/PRESENT WEATHER               <
>     TMP    - TEMPERATURE IN FAHRENHEIT                   <
>     DP     - DEWPOINT IN FAHRENHEIT                      <
>     RH     - RELATIVE HUMIDITY IN PERCENT                <
>     WIND   - DIRECTION AND SPEED IN MPH                  <
>     PRES   - MEAN SEA LEVEL PRESSURE IN INCHES OF HG     <
>     WCI    - WIND CHILL INDEX                            <
>     VSB    - VISIBILITY IN MILES                         <
>     HX     - HEAT INDEX                                  <
>     TC     - TEMPERATURE IN CELSIUS                      <
>     VRB    - VARIABLE WIND DIRECTION                     <
>                                                          <
>>>>>>>>>>>>>>>>>>>>>>>>>>>> KEY <<<<<<<<<<<<<<<<<<<<<<<<<<<





USA.gov is the U.S. government's official web portal to all federal, state and local government web resources and services.